Time,TemperatureF,DewpointF,PressureIn,WindDirection,WindDirectionDegrees,WindSpeedMPH,WindSpeedGustMPH,Humidity,HourlyPrecipIn,Conditions,Clouds,dailyrainin,SoftwareType,DateUTC
2013-01-02 00:03:00,39.0,34.0,-100.00,South,185,2.0,2.0,81,0.00,,,0.08,,2013-01-02 05:03:00,
2013-01-02 00:12:00,39.0,34.0,-100.00,South,185,2.0,2.0,81,0.00,,,0.08,,2013-01-02 05:12:00,
2013-01-02 00:22:00,38.0,34.0,-100.00,WNW,299,0.0,2.0,82,0.00,,,0.08,,2013-01-02 05:22:00,
2013-01-02 00:33:00,38.0,34.0,-100.00,NNW,344,1.0,2.0,83,0.00,,,0.08,,2013-01-02 05:33:00,
2013-01-02 00:42:00,38.0,34.0,-100.00,NNW,344,1.0,2.0,83,0.00,,,0.08,,2013-01-02 05:42:00,
2013-01-02 00:52:00,39.0,34.0,-100.00,NNE,18,2.0,3.0,83,0.00,,,0.08,,2013-01-02 05:52:00,
2013-01-02 01:02:00,39.0,34.0,-100.00,NNE,18,2.0,3.0,83,0.00,,,0.08,,2013-01-02 06:02:00,
2013-01-02 01:12:00,39.0,34.0,-100.00,NNE,18,2.0,3.0,83,0.00,,,0.08,,2013-01-02 06:12:00,
2013-01-02 01:22:00,39.0,34.0,-100.00,NNE,18,2.0,3.0,83,0.00,,,0.08,,2013-01-02 06:22:00,
2013-01-02 01:32:00,38.0,35.0,-100.00,North,360,2.0,2.0,87,0.00,,,0.08,,2013-01-02 06:32:00,
2013-01-02 01:42:00,38.0,35.0,-100.00,North,360,2.0,2.0,87,0.00,,,0.08,,2013-01-02 06:42:00,
2013-01-02 01:53:00,38.0,35.0,-100.00,North,360,2.0,2.0,87,0.00,,,0.08,,2013-01-02 06:53:00,
2013-01-02 02:02:00,38.0,35.0,-100.00,North,360,2.0,2.0,87,0.00,,,0.08,,2013-01-02 07:02:00,
2013-01-02 02:22:00,38.0,34.0,-100.00,North,3,4.0,5.0,85,0.00,,,0.08,,2013-01-02 07:22:00,
2013-01-02 02:32:00,38.0,34.0,-100.00,NNE,18,3.0,4.0,83,0.00,,,0.08,,2013-01-02 07:32:00,
2013-01-02 02:42:00,38.0,34.0,-100.00,NNE,18,3.0,4.0,83,0.00,,,0.08,,2013-01-02 07:42:00,
2013-01-02 02:52:00,-999.0,33.0,-100.00,NNW,344,6.0,8.0,79,0.00,,,0.08,,2013-01-02 07:52:00,
2013-01-02 03:02:00,-999.0,33.0,-100.00,NNW,344,6.0,8.0,79,0.00,,,0.08,,2013-01-02 08:02:00,
2013-01-02 03:12:00,-999.0,33.0,-100.00,NNW,344,6.0,8.0,79,0.00,,,0.08,,2013-01-02 08:12:00,
2013-01-02 03:22:00,39.0,31.0,-100.00,NNW,340,9.0,12.0,74,0.00,,,0.08,,2013-01-02 08:22:00,
2013-01-02 03:32:00,38.0,31.0,-100.00,NNW,335,8.0,10.0,73,0.00,,,0.08,,2013-01-02 08:32:00,
2013-01-02 03:42:00,38.0,31.0,-100.00,NNW,335,8.0,10.0,73,0.00,,,0.08,,2013-01-02 08:42:00,
2013-01-02 03:53:00,38.0,31.0,-100.00,NNW,335,8.0,10.0,73,0.00,,,0.08,,2013-01-02 08:53:00,
2013-01-02 04:02:00,38.0,31.0,-100.00,NNW,335,8.0,10.0,73,0.00,,,0.08,,2013-01-02 09:02:00,
2013-01-02 04:22:00,38.0,29.0,-100.00,North,357,6.0,8.0,69,0.00,,,0.08,,2013-01-02 09:22:00,
2013-01-02 04:32:00,38.0,28.0,-100.00,NNE,21,3.0,5.0,68,0.00,,,0.08,,2013-01-02 09:32:00,
2013-01-02 04:43:00,38.0,28.0,-100.00,NNE,21,3.0,5.0,68,0.00,,,0.08,,2013-01-02 09:43:00,
2013-01-02 04:53:00,37.0,29.0,-100.00,North,3,1.0,2.0,71,0.00,,,0.02,,2013-01-02 09:53:00,
2013-01-02 05:02:00,37.0,29.0,-100.00,North,3,1.0,2.0,71,0.00,,,0.02,,2013-01-02 10:02:00,
2013-01-02 05:12:00,37.0,29.0,-100.00,North,3,1.0,2.0,71,0.00,,,0.02,,2013-01-02 10:12:00,
2013-01-02 05:22:00,37.0,29.0,-100.00,North,357,1.0,2.0,74,0.00,,,0.02,,2013-01-02 10:22:00,
2013-01-02 05:32:00,37.0,29.0,-100.00,NNW,328,0.0,1.0,73,0.00,,,0.01,,2013-01-02 10:32:00,
2013-01-02 05:42:00,37.0,29.0,-100.00,NNW,328,0.0,1.0,73,0.00,,,0.01,,2013-01-02 10:42:00,
2013-01-02 05:52:00,36.0,29.0,-100.00,North,353,2.0,3.0,75,0.00,,,0.01,,2013-01-02 10:52:00,
2013-01-02 06:02:00,36.0,29.0,-100.00,North,353,2.0,3.0,75,0.00,,,0.01,,2013-01-02 11:02:00,
2013-01-02 06:12:00,36.0,29.0,-100.00,North,353,2.0,3.0,75,0.00,,,0.01,,2013-01-02 11:12:00,
2013-01-02 06:22:00,37.0,29.0,-100.00,North,6,1.0,2.0,73,0.00,,,0.01,,2013-01-02 11:22:00,
2013-01-02 06:33:00,37.0,29.0,-100.00,NNW,333,4.0,4.0,74,0.00,,,0.01,,2013-01-02 11:33:00,
2013-01-02 06:42:00,37.0,29.0,-100.00,NNW,333,4.0,4.0,74,0.00,,,0.01,,2013-01-02 11:42:00,
2013-01-02 06:53:00,37.0,28.0,-100.00,NNW,336,4.0,6.0,69,0.00,,,0.01,,2013-01-02 11:53:00,
2013-01-02 07:03:00,37.0,28.0,-100.00,NNW,336,4.0,6.0,69,0.00,,,0.01,,2013-01-02 12:03:00,
2013-01-02 07:12:00,37.0,28.0,-100.00,NNW,336,4.0,6.0,69,0.00,,,0.01,,2013-01-02 12:12:00,
2013-01-02 07:22:00,37.0,27.0,-100.00,NNE,13,8.0,11.0,67,0.00,,,0.01,,2013-01-02 12:22:00,
2013-01-02 07:33:00,37.0,27.0,-100.00,NNE,13,8.0,11.0,67,0.00,,,0.01,,2013-01-02 12:33:00,
2013-01-02 07:43:00,37.0,27.0,-100.00,NNE,13,8.0,11.0,67,0.00,,,0.01,,2013-01-02 12:43:00,
2013-01-02 07:53:00,36.0,26.0,-100.00,North,3,6.0,10.0,68,0.00,,,0.01,,2013-01-02 12:53:00,
2013-01-02 08:03:00,36.0,26.0,-100.00,North,3,6.0,10.0,68,0.00,,,0.01,,2013-01-02 13:03:00,
2013-01-02 08:13:00,36.0,26.0,-100.00,North,3,6.0,10.0,68,0.00,,,0.01,,2013-01-02 13:13:00,
2013-01-02 08:22:00,36.0,27.0,-100.00,East,97,2.0,3.0,68,0.00,,,0.01,,2013-01-02 13:22:00,
2013-01-02 08:33:00,36.0,27.0,-100.00,East,97,2.0,3.0,68,0.00,,,0.01,,2013-01-02 13:33:00,
2013-01-02 08:43:00,36.0,27.0,-100.00,East,97,2.0,3.0,68,0.00,,,0.01,,2013-01-02 13:43:00,
2013-01-02 08:53:00,36.0,26.0,-100.00,NNE,17,4.0,5.0,67,0.00,,,0.01,,2013-01-02 13:53:00,
2013-01-02 09:03:00,36.0,26.0,-100.00,NNE,17,4.0,5.0,67,0.00,,,0.01,,2013-01-02 14:03:00,
2013-01-02 09:12:00,36.0,26.0,-100.00,NNE,17,4.0,5.0,67,0.00,,,0.01,,2013-01-02 14:12:00,
2013-01-02 09:23:00,37.0,27.0,-100.00,West,281,0.0,2.0,66,0.00,,,0.01,,2013-01-02 14:23:00,
2013-01-02 09:33:00,37.0,26.0,-100.00,West,274,3.0,4.0,65,0.00,,,0.01,,2013-01-02 14:33:00,
2013-01-02 09:43:00,37.0,26.0,-100.00,West,274,3.0,4.0,65,0.00,,,0.01,,2013-01-02 14:43:00,
2013-01-02 09:53:00,37.0,26.0,-100.00,West,274,3.0,4.0,65,0.00,,,0.01,,2013-01-02 14:53:00,
2013-01-02 10:03:00,37.0,26.0,-100.00,West,274,3.0,4.0,65,0.00,,,0.01,,2013-01-02 15:03:00,
2013-01-02 10:23:00,37.0,26.0,-100.00,NW,320,6.0,11.0,66,0.00,,,0.01,,2013-01-02 15:23:00,
2013-01-02 10:33:00,37.0,26.0,-100.00,NW,320,6.0,11.0,66,0.00,,,0.01,,2013-01-02 15:33:00,
2013-01-02 10:43:00,36.0,26.0,-100.00,NW,325,6.0,8.0,66,0.00,,,0.01,,2013-01-02 15:43:00,
2013-01-02 10:53:00,36.0,26.0,-100.00,NW,325,6.0,8.0,66,0.00,,,0.01,,2013-01-02 15:53:00,
2013-01-02 11:03:00,36.0,26.0,-100.00,NNW,330,6.0,8.0,66,0.00,,,0.01,,2013-01-02 16:03:00,
2013-01-02 11:13:00,36.0,26.0,-100.00,NNW,330,6.0,8.0,66,0.00,,,0.01,,2013-01-02 16:13:00,
2013-01-02 11:22:00,36.0,26.0,-100.00,NW,323,6.0,8.0,66,0.00,,,0.01,,2013-01-02 16:22:00,
2013-01-02 11:33:00,36.0,26.0,-100.00,NW,323,6.0,8.0,66,0.00,,,0.01,,2013-01-02 16:33:00,
2013-01-02 11:43:00,36.0,25.0,-100.00,WNW,298,3.0,5.0,64,0.00,,,0.01,,2013-01-02 16:43:00,
2013-01-02 11:54:00,36.0,25.0,-100.00,WNW,298,3.0,5.0,64,0.00,,,0.01,,2013-01-02 16:54:00,
2013-01-02 12:03:00,36.0,25.0,-100.00,NW,304,4.0,6.0,63,0.00,,,0.01,,2013-01-02 17:03:00,
2013-01-02 12:13:00,36.0,25.0,-100.00,NW,304,4.0,6.0,63,0.00,,,0.01,,2013-01-02 17:13:00,
2013-01-02 12:23:00,36.0,24.0,-100.00,NW,312,7.0,9.0,62,0.00,,,0.01,,2013-01-02 17:23:00,
2013-01-02 12:33:00,36.0,24.0,-100.00,NW,312,7.0,9.0,62,0.00,,,0.01,,2013-01-02 17:33:00,
2013-01-02 12:43:00,36.0,22.0,-100.00,NW,318,4.0,7.0,56,0.00,,,0.01,,2013-01-02 17:43:00,
2013-01-02 12:54:00,36.0,22.0,-100.00,NW,318,4.0,7.0,56,0.00,,,0.01,,2013-01-02 17:54:00,
2013-01-02 13:03:00,37.0,23.0,-100.00,WNW,285,4.0,8.0,56,0.00,,,0.01,,2013-01-02 18:03:00,
2013-01-02 13:13:00,37.0,23.0,-100.00,WNW,285,4.0,8.0,56,0.00,,,0.01,,2013-01-02 18:13:00,
2013-01-02 13:23:00,37.0,21.0,-100.00,NW,325,8.0,15.0,52,0.00,,,0.01,,2013-01-02 18:23:00,
2013-01-02 13:33:00,37.0,21.0,-100.00,NW,325,8.0,15.0,52,0.00,,,0.01,,2013-01-02 18:33:00,
2013-01-02 13:43:00,-999.0,22.0,-100.00,NW,318,5.0,8.0,54,0.00,,,0.01,,2013-01-02 18:43:00,
2013-01-02 13:54:00,-999.0,22.0,-100.00,NW,318,5.0,8.0,54,0.00,,,0.01,,2013-01-02 18:54:00,
2013-01-02 14:03:00,37.0,23.0,-100.00,NNW,330,5.0,7.0,56,0.00,,,0.01,,2013-01-02 19:03:00,
2013-01-02 14:13:00,37.0,23.0,-100.00,NNW,330,5.0,7.0,56,0.00,,,0.01,,2013-01-02 19:13:00,
2013-01-02 14:23:00,37.0,23.0,-100.00,NNW,330,5.0,7.0,56,0.00,,,0.01,,2013-01-02 19:23:00,
2013-01-02 14:43:00,37.0,21.0,-100.00,NW,312,7.0,10.0,51,0.00,,,0.01,,2013-01-02 19:43:00,
2013-01-02 14:53:00,37.0,21.0,-100.00,NW,312,7.0,10.0,51,0.00,,,0.01,,2013-01-02 19:53:00,
2013-01-02 15:03:00,37.0,20.0,-100.00,WNW,299,6.0,9.0,49,0.00,,,0.01,,2013-01-02 20:03:00,
2013-01-02 15:12:00,37.0,20.0,-100.00,WNW,299,6.0,9.0,49,0.00,,,0.01,,2013-01-02 20:12:00,
2013-01-02 15:23:00,37.0,18.0,-100.00,NW,320,5.0,8.0,46,0.00,,,0.01,,2013-01-02 20:23:00,
2013-01-02 15:33:00,37.0,18.0,-100.00,NW,320,5.0,8.0,46,0.00,,,0.01,,2013-01-02 20:33:00,
2013-01-02 15:42:00,38.0,18.0,-100.00,NW,325,6.0,8.0,44,0.00,,,0.01,,2013-01-02 20:42:00,
2013-01-02 15:53:00,38.0,18.0,-100.00,NW,325,6.0,8.0,44,0.00,,,0.01,,2013-01-02 20:53:00,
2013-01-02 16:03:00,38.0,17.0,-100.00,NNW,335,6.0,10.0,43,0.00,,,0.01,,2013-01-02 21:03:00,
2013-01-02 16:13:00,38.0,17.0,-100.00,NNW,335,6.0,10.0,43,0.00,,,0.01,,2013-01-02 21:13:00,
2013-01-02 16:23:00,37.0,17.0,-100.00,NNW,344,10.0,13.0,42,0.00,,,0.01,,2013-01-02 21:23:00,
2013-01-02 16:33:00,37.0,17.0,-100.00,NNW,344,10.0,13.0,42,0.00,,,0.01,,2013-01-02 21:33:00,
2013-01-02 16:43:00,37.0,16.0,-100.00,NW,325,8.0,10.0,42,0.00,,,0.01,,2013-01-02 21:43:00,
2013-01-02 16:53:00,37.0,16.0,-100.00,NW,325,8.0,10.0,42,0.00,,,0.01,,2013-01-02 21:53:00,
2013-01-02 17:03:00,37.0,15.0,-100.00,NNW,335,7.0,9.0,41,0.00,,,0.01,,2013-01-02 22:03:00,
2013-01-02 17:13:00,37.0,15.0,-100.00,NNW,335,7.0,9.0,41,0.00,,,0.01,,2013-01-02 22:13:00,
2013-01-02 17:22:00,37.0,15.0,-100.00,NNW,335,7.0,9.0,41,0.00,,,0.01,,2013-01-02 22:22:00,
2013-01-02 17:32:00,36.0,16.0,-100.00,NNW,329,4.0,4.0,42,0.00,,,0.01,,2013-01-02 22:32:00,
2013-01-02 17:43:00,36.0,13.0,-100.00,NNW,342,6.0,7.0,39,0.00,,,0.01,,2013-01-02 22:43:00,
2013-01-02 17:52:00,36.0,13.0,-100.00,NNW,342,6.0,7.0,39,0.00,,,0.01,,2013-01-02 22:52:00,
2013-01-02 18:03:00,35.0,13.0,-100.00,NNW,335,4.0,5.0,39,0.00,,,0.01,,2013-01-02 23:03:00,
2013-01-02 18:13:00,35.0,13.0,-100.00,NNW,335,4.0,5.0,39,0.00,,,0.01,,2013-01-02 23:13:00,
2013-01-02 18:23:00,35.0,13.0,-100.00,NNW,328,3.0,4.0,39,0.00,,,0.01,,2013-01-02 23:23:00,
2013-01-02 18:33:00,35.0,13.0,-100.00,NNW,328,3.0,4.0,39,0.00,,,0.01,,2013-01-02 23:33:00,
2013-01-02 18:43:00,35.0,14.0,-100.00,NW,313,3.0,5.0,42,0.00,,,0.01,,2013-01-02 23:43:00,
2013-01-02 18:53:00,35.0,14.0,-100.00,NW,313,3.0,5.0,42,0.00,,,0.01,,2013-01-02 23:53:00,
2013-01-02 19:02:00,35.0,13.0,-100.00,WNW,292,3.0,4.0,41,0.00,,,0.01,,2013-01-03 00:02:00,
2013-01-02 19:12:00,35.0,13.0,-100.00,WNW,292,3.0,4.0,41,0.00,,,0.01,,2013-01-03 00:12:00,
2013-01-02 19:22:00,34.0,14.0,-100.00,NW,305,2.0,4.0,43,0.00,,,0.01,,2013-01-03 00:22:00,
2013-01-02 19:38:00,34.0,14.0,-100.00,NW,305,2.0,4.0,43,0.00,,,0.01,,2013-01-03 00:38:00,
2013-01-02 19:53:00,34.0,13.0,-100.00,NW,313,3.0,5.0,41,0.00,,,0.01,,2013-01-03 00:53:00,
2013-01-02 20:02:00,34.0,13.0,-100.00,NW,313,3.0,5.0,41,0.00,,,0.01,,2013-01-03 01:02:00,
2013-01-02 20:12:00,34.0,13.0,-100.00,NW,313,3.0,5.0,41,0.00,,,0.01,,2013-01-03 01:12:00,
2013-01-02 20:22:00,33.0,14.0,-100.00,SSW,199,2.0,3.0,43,0.00,,,0.01,,2013-01-03 01:22:00,
2013-01-02 20:33:00,33.0,14.0,-100.00,SSW,199,2.0,3.0,43,0.00,,,0.01,,2013-01-03 01:33:00,
2013-01-02 20:43:00,33.0,12.0,-100.00,NW,311,1.0,1.0,41,0.00,,,0.01,,2013-01-03 01:43:00,
2013-01-02 20:53:00,33.0,12.0,-100.00,NW,311,1.0,1.0,41,0.00,,,0.01,,2013-01-03 01:53:00,
2013-01-02 21:02:00,33.0,14.0,-100.00,SW,230,2.0,4.0,45,0.00,,,0.01,,2013-01-03 02:02:00,
2013-01-02 21:12:00,33.0,14.0,-100.00,SW,230,2.0,4.0,45,0.00,,,0.01,,2013-01-03 02:12:00,
2013-01-02 21:23:00,33.0,15.0,-100.00,SE,136,1.0,2.0,48,0.00,,,0.01,,2013-01-03 02:23:00,
2013-01-02 21:33:00,33.0,15.0,-100.00,SE,136,1.0,2.0,48,0.00,,,0.01,,2013-01-03 02:33:00,
2013-01-02 21:43:00,33.0,15.0,-100.00,SE,136,1.0,2.0,48,0.00,,,0.01,,2013-01-03 02:43:00,
2013-01-02 22:02:00,33.0,15.0,-100.00,NE,41,1.0,2.0,47,0.00,,,0.01,,2013-01-03 03:02:00,
2013-01-02 22:12:00,33.0,15.0,-100.00,NE,41,1.0,2.0,47,0.00,,,0.01,,2013-01-03 03:12:00,
2013-01-02 22:22:00,32.0,15.0,-100.00,East,92,3.0,4.0,49,0.00,,,0.01,,2013-01-03 03:22:00,
2013-01-02 22:47:00,32.0,15.0,-100.00,East,92,3.0,4.0,49,0.00,,,0.01,,2013-01-03 03:47:00,
2013-01-02 22:52:00,32.0,17.0,-100.00,NW,320,3.0,5.0,53,0.00,,,0.01,,2013-01-03 03:52:00,
2013-01-02 23:03:00,32.0,17.0,-100.00,NNW,342,0.0,1.0,53,0.00,,,0.01,,2013-01-03 04:03:00,
2013-01-02 23:12:00,32.0,17.0,-100.00,NNW,342,0.0,1.0,53,0.00,,,0.01,,2013-01-03 04:12:00,
2013-01-02 23:22:00,31.0,19.0,-100.00,NW,316,1.0,2.0,62,0.00,,,0.00,,2013-01-03 04:22:00,
2013-01-02 23:32:00,31.0,19.0,-100.00,NW,316,1.0,2.0,62,0.00,,,0.00,,2013-01-03 04:32:00,
2013-01-02 23:42:00,30.0,18.0,-100.00,WSW,241,0.0,1.0,60,0.00,,,0.00,,2013-01-03 04:42:00,
2013-01-02 23:53:00,30.0,18.0,-100.00,WSW,241,0.0,1.0,60,0.00,,,0.00,,2013-01-03 04:53:00,